Date,TemperatureHighF,TemperatureAvgF,TemperatureLowF,DewpointHighF,DewpointAvgF,DewpointLowF,HumidityHigh,HumidityAvg,HumidityLow,PressureMaxIn,PressureMinIn,WindSpeedMaxMPH,WindSpeedAvgMPH,GustSpeedMaxMPH,PrecipitationSumIn
2013-1-1,40.1,37.0,28.4,31.7,26.7,16.1,74,66,54,29.99,29.81,10,7,19,1.72
2013-1-2,31.7,26.9,24.2,21.5,10.8,-99.9,71,59,57,30.16,29.98,13,-48,18,0.45
2013-1-3,29.6,25.8,22.2,21.5,18.7,15.9,80,74,66,30.20,30.10,7,5,14,0.02
2013-1-4,39.7,34.2,28.0,25.8,19.3,-99.9,77,61,53,30.07,29.92,9,-36,15,0.58
2013-1-5,43.7,33.0,24.4,29.7,20.4,-99.9,90,67,53,30.29,29.97,12,-30,21,0.22
2013-1-6,44.8,23.6,27.1,36.4,-10.6,-99.9,91,59,65,30.24,29.98,7,-313,12,0.01
2013-1-7,43.9,26.2,20.9,34.7,-1.7,-99.9,91,62,53,30.42,30.03,9,-221,14,0.03
2013-1-8,49.5,28.0,20.5,37.8,3.3,-99.9,94,66,54,30.45,30.35,11,-196,19,1.15
2013-1-9,50.0,40.8,25.3,42.8,28.9,-99.9,93,73,60,30.40,30.12,9,-49,18,0.79
2013-1-10,47.8,35.2,39.8,35.0,4.7,-99.9,71,47,47,30.56,30.18,11,-191,20,0.08
2013-1-11,46.6,37.5,26.8,45.2,32.8,-99.9,95,86,77,30.55,30.14,3,-13,7,0.28
2013-1-12,46.4,44.9,42.6,45.2,43.7,41.5,96,96,94,30.18,30.06,3,0,11,0.08
2013-1-13,51.0,44.7,40.8,49.9,43.7,39.7,97,96,96,30.19,30.03,3,0,7,0.00
2013-1-14,55.7,49.1,37.6,54.9,45.0,30.5,100,86,54,30.28,29.95,11,4,19,0.05
2013-1-15,39.6,38.5,36.3,34.3,31.8,29.7,90,77,70,30.32,30.23,5,1,13,0.07
2013-1-16,39.1,36.6,34.4,37.8,34.9,31.5,96,94,84,30.24,29.77,10,1,20,0.51
2013-1-17,42.1,37.2,33.9,35.5,32.8,24.4,94,84,68,30.10,29.91,11,2,16,0.00
2013-1-18,33.8,27.3,18.4,24.0,13.4,6.0,82,56,38,30.52,30.02,13,5,22,0.00
2013-1-19,48.1,40.1,18.2,38.7,30.7,14.0,89,70,51,30.45,29.96,18,8,33,0.01
2013-1-20,55.9,45.5,32.5,39.0,25.4,15.9,75,46,30,30.02,29.67,14,10,27,0.00
2013-1-21,32.5,29.7,26.7,28.6,18.5,9.9,93,65,45,30.12,29.81,11,4,20,0.00
2013-1-22,27.5,21.8,15.3,25.6,9.0,-1.3,93,58,43,30.16,29.80,13,10,21,0.00
2013-1-23,19.4,16.3,13.9,4.2,1.6,-1.7,63,52,45,30.24,30.14,12,8,23,0.00
2013-1-24,22.4,17.8,12.3,7.4,4.1,0.9,71,55,43,30.35,30.14,15,9,27,0.00
2013-1-25,23.8,20.1,15.9,19.9,10.7,4.6,91,67,54,30.40,30.06,11,5,20,0.00
2013-1-26,25.9,22.2,18.4,20.1,12.3,5.4,91,67,47,30.34,30.03,13,7,22,0.00
2013-1-27,32.8,24.9,15.5,16.6,11.5,7.0,77,58,34,30.51,30.33,13,7,21,0.00
2013-1-28,36.9,28.0,14.0,35.3,24.2,8.7,94,86,60,30.49,30.01,4,1,8,0.14
2013-1-29,42.8,37.2,33.7,38.0,34.8,32.2,95,91,80,30.19,30.00,3,0,6,0.00
2013-1-30,58.2,52.6,39.4,55.2,50.7,37.7,100,93,88,30.14,29.48,13,6,27,0.01
2013-1-31,58.7,47.0,31.0,56.7,34.7,14.6,94,64,37,29.75,29.11,20,12,35,0.56